Home > Weather > Swanage > Past weeks

Flag for United Kingdom Weather for the Past 2 Weeks in Swanage, England, United Kingdom

Now
41 °F

Passing clouds.


Feels Like: 36 °F
Forecast: 38 / 42 °F
Wind: 7 mph from East

Location: Bournemouth Airport

Current Time: Feb 13, 2016 at 12:50:45 AM

Latest Report: Feb 12, 2016 at 10:20 PM


Visibility: N/A

Pressure: 29.33 "Hg

Humidity: 93%

Dew point: 39 °F

Location of SwanageLocation

Historic Weather in Swanage — Graph

°F

Swanage Temperature Yesterday

Maximum temperature yesterday: 45 °F (at 5:50 AM)
Minimum temperature yesterday: 41 °F (at 7:20 AM)
Average temperature yesterday: 42 °F

High & Low Weather Summary for the Past Weeks

 TemperatureHumidityPressure
High57 °F (Jan 31, 2:20 PM)100% (Jan 31, 8:50 AM)30.42 "Hg (Jan 31, 8:50 AM)
Low25 °F (Feb 11, 6:20 AM)53% (Jan 30, 1:50 PM)29.09 "Hg (Feb 6, 8:20 PM)
Average47 °F83%29.74 "Hg
* Reported Jan 28 10:20 PM — Feb 12 10:20 PM, Swanage, Weather by CustomWeather, © 2016

Note: Actual official high and low records may vary slightly from our data, if they occured in-between our weather recording intervals... More about our weather records

Advertising

Swanage Weather History for the Previous 24 Hours

 ConditionsComfort  
Time TempWeatherWind HumidityBarometerVisibility
10:20 PM
Fri, Feb 12
41 °FPassing clouds.7 mph93%29.33 "HgN/A
9:20 PM41 °FPartly cloudy.8 mph93%29.36 "HgN/A
8:50 PM41 °FPartly cloudy.9 mph93%29.36 "HgN/A
8:20 PM41 °FPassing clouds.7 mph93%29.36 "HgN/A
7:50 PM41 °FPassing clouds.6 mph93%29.39 "HgN/A
7:20 PM41 °FPartly cloudy.6 mph93%29.39 "HgN/A
6:50 PM41 °FPassing clouds.5 mph93%29.36 "HgN/A
6:20 PM41 °FPassing clouds.6 mph93%29.36 "HgN/A
5:50 PM41 °FPassing clouds.7 mph93%29.36 "HgN/A
5:20 PM41 °FPartly cloudy.8 mph93%29.33 "HgN/A
4:50 PM41 °FBroken clouds.12 mph93%29.33 "HgN/A
4:20 PM43 °FPartly sunny.10 mph87%29.33 "HgN/A
3:50 PM43 °FPartly sunny.12 mph93%29.30 "HgN/A
3:20 PM43 °FScattered clouds.9 mph93%29.30 "Hg6 mi
2:50 PM43 °FBroken clouds.9 mph93%29.30 "Hg6 mi
2:20 PM43 °FPartly sunny.9 mph93%29.30 "Hg6 mi
1:50 PM43 °FLight rain. Partly sunny.10 mph93%29.30 "Hg2 mi
1:20 PM45 °FPartly sunny.12 mph81%29.27 "HgN/A
12:50 PM45 °FBroken clouds.12 mph87%29.27 "HgN/A
12:20 PM45 °FBroken clouds.10 mph87%29.27 "HgN/A
11:50 AM45 °FScattered clouds.9 mph87%29.27 "HgN/A
11:20 AM45 °FPartly sunny.9 mph87%29.27 "HgN/A
10:50 AM45 °FSprinkles. Partly sunny.8 mph87%29.27 "HgN/A
10:20 AM43 °FPartly sunny.9 mph87%29.27 "HgN/A
9:50 AM43 °FScattered showers. Scattered clouds.7 mph87%29.27 "HgN/A
9:20 AM43 °FScattered showers. Scattered clouds.12 mph87%29.27 "HgN/A
8:50 AM41 °FPartly sunny.7 mph93%29.27 "HgN/A
8:20 AM41 °FPartly sunny.8 mph93%29.30 "HgN/A
7:20 AM41 °FPassing clouds.6 mph93%29.30 "HgN/A
6:50 AM43 °FPassing clouds.10 mph81%29.30 "HgN/A
6:20 AM45 °FPassing clouds.10 mph76%29.30 "HgN/A
5:50 AM45 °FPassing clouds.12 mph76%29.30 "HgN/A
Weather by CustomWeather, © 2016

See weather overviewHow to use our weather pages